Home   Weather   Wiesbaden   Past weeks

Flag for Germany Past Weather in Wiesbaden, Hesse, Germany — Yesterday and Last 2 Weeks

46 °F


Feels Like: 44 °F
Forecast: 40 / 52 °F
Wind: 5 mph from Northwest

Location: Wiesbaden Airport

Current Time: Oct 21, 2016 at 11:21:20 AM

Latest Report: Oct 21, 2016 at 10:58 AM

Visibility: N/A

Pressure: 29.98 "Hg

Humidity: 71%

Dew Point: 37 °F

Location of WiesbadenLocation

Past Weather in Wiesbaden — Graph


Wiesbaden Temperature Yesterday

Maximum temperature yesterday: 50 °F (at 2:00 PM)
Minimum temperature yesterday: 45 °F (at 12:58 AM)
Average temperature yesterday: 46 °F

High & Low Weather Summary for the Past Weeks

High61 °F (Oct 16, 4:58 PM)94% (Oct 18, 8:58 AM)30.28 "Hg (Oct 18, 8:58 AM)
Low39 °F (Oct 16, 6:58 AM)44% (Oct 8, 3:58 PM)29.68 "Hg (Oct 14, 8:58 PM)
Average49 °F72%30.08 "Hg
* Reported Oct 6 10:58 AM — Oct 21 10:01 AM, Wiesbaden, Weather by CustomWeather, © 2016

Note: Actual official high and low records may vary slightly from our data, if they occured in-between our weather recording intervals... More about our weather records


Wiesbaden Weather History for the Previous 24 Hours

Scroll right to see more
Time TempWeatherWind HumidityBarometerVisibility
10:01 AM
Fri, Oct 21
46 °FMostly cloudy.3 mph71%29.97 "HgN/A
9:48 AM45 °FCloudy.3 mph76%29.97 "HgN/A
8:58 AM45 °FOvercast.No wind77%29.98 "HgN/A
8:03 AM45 °FBroken clouds.5 mph76%29.95 "HgN/A
7:58 AM44 °FPassing clouds.6 mph78%29.97 "HgN/A
6:58 AM45 °FOvercast.5 mph76%29.96 "HgN/A
5:58 AM45 °FMostly cloudy.5 mph76%29.96 "HgN/A
4:58 AM45 °FMostly cloudy.6 mph76%29.94 "HgN/A
3:58 AM45 °FMostly cloudy.No wind81%29.94 "HgN/A
2:58 AM45 °FOvercast.3 mph81%29.96 "HgN/A
1:58 AM45 °FOvercast.5 mph77%29.95 "HgN/A
12:58 AM45 °FOvercast.5 mph81%29.94 "HgN/A
11:58 PM
Thu, Oct 20
45 °FOvercast.No wind80%29.93 "HgN/A
11:00 PM46 °FLight rain. Passing clouds.3 mph82%29.91 "HgN/A
10:58 PM46 °FLight rain. Partly cloudy.5 mph82%29.93 "HgN/A
10:04 PM46 °FLight rain. Mostly cloudy.No wind82%29.90 "HgN/A
9:00 PM46 °FLight rain. Overcast.No wind82%29.89 "Hg6 mi
8:58 PM46 °FLight rain. Overcast.No wind85%29.90 "Hg6 mi
7:58 PM46 °FLight rain. Mostly cloudy.3 mph84%29.90 "Hg6 mi
6:58 PM46 °FOvercast.No wind82%29.90 "HgN/A
5:58 PM47 °FOvercast.No wind75%29.90 "HgN/A
4:58 PM48 °FLight rain. Overcast.3 mph73%29.90 "HgN/A
3:58 PM48 °FOvercast.No wind71%29.90 "HgN/A
2:58 PM48 °FLight rain. More clouds than sun.5 mph71%29.91 "HgN/A
2:04 PM50 °FMostly cloudy.5 mph71%29.89 "HgN/A
2:00 PM50 °FLight rain. Mostly cloudy.3 mph71%29.89 "HgN/A
1:02 PM48 °FMore clouds than sun.6 mph82%29.90 "HgN/A
12:58 PM48 °FMostly cloudy.5 mph82%29.91 "HgN/A
11:58 AM46 °FLow clouds.5 mph84%29.91 "HgN/A
11:04 AM45 °FLow clouds.3 mph87%29.91 "Hg6 mi
Weather by CustomWeather, © 2016

See weather overviewHow to use our weather pages